Find Starlink 4043

NORAD ID: 52836 Int'l Des: 2022-062 Owner: SPXS Country: US Constellation: starlink operational
LEOCIRCULAR

当前视图

正在加载3D地球...

About Starlink 4043

Starlink 4043 (NORAD 52836) is a starlink constellation satellite (v1.5) launched Jun 17, 2022 by SPXS of US. It operates in LEO, CIRCULAR orbit with a mass of 297.00 kg.

关于 Starlink 4043

正在加载描述...

即将过境

Passes for default location (London). Set your location on the main map for personalized predictions.

高度历史

Loading altitude history...

两行轨道根数

1 52836U 22062G 26176.16667823 .00182722 00000-0 22903-2 0 9997
2 52836 53.2193 257.4420 0001392 72.7288 218.1379 15.58652153 5920
Epoch: Jun 25, 2026 • Age: 7 hours

当前状态

高度 394.0 km
速度 7.67 km/s
星下点 -8.23°S, 0.42°W
发射日期 Jun 17, 2022
运行时间 4 years
类型 internet

技术详情

分类 Payload
质量 297.00 kg
干质量 275.00 kg
总质量 297.00 kg
长度 0.20 m
直径 2.80 m
跨度 9.00 m
形状 Box + pan
制造商 SPXS
平台类型 Starlink
阶段状态 In Orbit
所有者/国家 SPXS/US

Most Searched